Location: Dittelbrunn
(50.0738°N, 10.2196°E)
Time: 01:33:12
(UTC+00:00)

Cosmos 1805 - Pass Details

Date: 18 September 2020
Orbit: 524 x 531 km, 82.5° (Epoch: 30 October)

Event Time Altitude Azimuth Distance (km) Brightness Sun altitude
Exits shadow 19:01:13 26° 79° (ENE) 1,074 4.3 -15.8°
Drops below altitude 10° 19:04:08 10° 32° (NNE) 1,792 5.8 -16.2°
Sets 19:06:31 0° 20° (NNE) 2,689 6.9 -16.6°
